N3PL Weather Reports


Display with metric or nautical units.
time (UTC)temp
F
wind
direction
speed
MPH
gust
MPH
rain 1hr
in
rain 24hr
in
rain mn
in
humidity
%
barometer
mb
20260901160119 81 154 0.0 0.0 0.00 0.00 0.03 80 1011.0
20260901155503 81 154 0.0 0.0 0.00 0.00 0.03 79 1010.9
20260901155007 81 154 0.0 0.0 0.00 0.00 0.03 78 1010.9
20260901154601 81 154 0.0 0.0 0.00 0.00 0.03 77 1010.9
20260901154003 82 154 0.0 0.0 0.00 0.00 0.03 76 1011.0
20260901153508 82 154 0.0 0.0 0.00 0.00 0.03 74 1011.0
20260901153059 82 154 0.0 0.0 0.00 0.00 0.03 73 1011.0
20260901152546 82 154 0.0 0.0 0.00 0.00 0.03 73 1011.0
20260901152049 83 154 0.0 0.0 0.00 0.00 0.03 74 1011.0
20260901151554 82 154 0.0 0.0 0.00 0.00 0.03 75 1011.0
20260901151100 82 154 0.0 0.0 0.00 0.00 0.03 76 1011.1
20260901150605 81 154 0.0 0.0 0.00 0.00 0.03 77 1011.1
20260901150107 80 154 0.0 0.0 0.00 0.00 0.03 78 1011.1
20260901145506 80 154 0.0 0.0 0.00 0.00 0.02 81 1011.2
20260901145008 79 154 0.0 0.0 0.00 0.00 0.02 84 1011.2
20260901144517 78 154 0.0 0.0 0.00 0.00 0.02 85 1011.2
20260901144104 78 154 0.0 0.0 0.00 0.00 0.02 86 1011.2
20260901143506 77 154 0.0 0.0 0.00 0.00 0.02 88 1011.2
20260901143009 77 154 0.0 0.0 0.00 0.00 0.02 90 1011.2
20260901142601 77 154 0.0 0.0 0.00 0.00 0.02 92 1011.4
20260901142104 76 154 0.0 0.0 0.00 0.00 0.02 93 1011.4
20260901141500 76 154 0.0 0.0 0.00 0.00 0.02 94 1011.4
20260901141003 76 154 0.0 0.0 0.00 0.00 0.02 95 1011.2
20260901140507 75 154 0.0 0.0 0.00 0.00 0.02 95 1011.2
20260901140108 75 154 0.0 0.0 0.00 0.00 0.02 95 1011.2
20260901135605 75 154 0.0 0.0 0.00 0.00 0.02 96 1011.1
20260901135007 75 154 0.0 0.0 0.00 0.00 0.02 96 1011.1
20260901134558 75 154 0.0 0.0 0.00 0.00 0.02 96 1011.1
20260901134050 75 154 0.0 0.0 0.00 0.00 0.02 97 1011.1
20260901133549 74 154 0.0 0.0 0.00 0.00 0.02 97 1011.1
20260901133053 75 154 0.0 0.0 0.00 0.00 0.02 97 1011.1
20260901132556 75 154 0.0 0.0 0.00 0.00 0.02 97 1011.3
20260901132005 74 154 0.0 0.0 0.00 0.00 0.02 98 1011.3
20260901131507 74 154 0.0 0.0 0.00 0.00 0.02 98 1011.3
20260901131100 74 154 0.0 0.0 0.00 0.00 0.02 98 1011.5
20260901130605 74 154 0.0 0.0 0.00 0.00 0.02 98 1011.5
20260901130002 74 154 0.0 0.0 0.00 0.00 0.02 98 1011.5
20260901125504 74 154 0.0 0.0 0.00 0.00 0.02 98 1011.5
20260901125058 74 154 0.0 0.0 0.00 0.00 0.02 98 1011.5
20260901124601 74 154 0.0 0.0 0.00 0.00 0.02 99 1011.5
20260901124107 73 154 0.0 0.0 0.00 0.00 0.02 99 1011.5
20260901123506 73 154 0.0 0.0 0.00 0.00 0.02 99 1011.5
20260901123119 73 154 0.0 0.0 0.00 0.00 0.02 99 1011.5
20260901122603 73 154 0.0 0.0 0.00 0.00 0.02 99 1011.4
20260901122004 72 154 0.0 0.0 0.00 0.00 0.02 99 1011.4
20260901121507 72 154 0.0 0.0 0.00 0.00 0.02 99 1011.4
20260901121101 72 154 0.0 0.0 0.00 0.00 0.02 99 1011.8
20260901120548 71 154 0.0 0.0 0.00 0.00 0.02 99 1011.8
20260901120055 71 154 0.0 0.0 0.00 0.00 0.02 99 1011.8
20260901115555 70 154 0.0 0.0 0.00 0.00 0.02 98 1011.7
20260901115103 70 154 0.0 0.0 0.00 0.00 0.02 98 1011.7
20260901114605 70 154 0.0 0.0 0.00 0.00 0.02 98 1011.7
20260901114003 70 154 0.0 0.0 0.00 0.00 0.02 98 1011.5
20260901113505 70 154 0.0 0.0 0.00 0.00 0.02 98 1011.5
20260901113106 70 154 0.0 0.0 0.00 0.00 0.02 98 1011.5
20260901112602 69 154 0.0 0.0 0.00 0.00 0.02 98 1011.7
20260901112105 69 154 0.0 0.0 0.00 0.00 0.02 98 1011.7
20260901111502 69 154 0.0 0.0 0.00 0.00 0.02 98 1011.7
20260901111008 69 154 0.0 0.0 0.00 0.00 0.02 98 1011.6
20260901110558 69 154 0.0 0.0 0.00 0.00 0.02 98 1011.6
20260901110114 69 154 0.0 0.0 0.00 0.00 0.02 98 1011.6
20260901105607 69 154 0.0 0.0 0.00 0.00 0.02 98 1011.6
20260901105056 69 154 0.0 0.0 0.00 0.00 0.02 98 1011.6
20260901104601 69 154 0.0 0.0 0.00 0.00 0.02 98 1011.6
20260901104002 69 154 0.0 0.0 0.00 0.00 0.02 98 1011.5
20260901103554 69 154 0.0 0.0 0.00 0.00 0.02 97 1011.5
20260901103106 69 154 0.0 0.0 0.00 0.00 0.02 98 1011.5
20260901102603 70 154 0.0 0.0 0.00 0.00 0.02 98 1011.4
20260901102106 70 154 0.0 0.0 0.00 0.00 0.02 98 1011.4
20260901101554 70 154 0.0 0.0 0.00 0.00 0.01 98 1011.4
20260901101101 69 154 0.0 0.0 0.00 0.00 0.01 97 1011.3
20260901100604 70 154 0.0 0.0 0.00 0.00 0.01 97 1011.3
20260901100002 70 154 0.0 0.0 0.00 0.00 0.01 98 1011.3
20260901095504 70 154 0.0 0.0 0.00 0.00 0.01 97 1011.4
20260901095008 70 154 0.0 0.0 0.00 0.00 0.01 97 1011.4
20260901094511 70 154 0.0 0.0 0.00 0.00 0.01 97 1011.4
20260901094104 70 154 0.0 0.0 0.00 0.00 0.01 97 1011.3
20260901093502 70 154 0.0 0.0 0.00 0.00 0.01 98 1011.3
20260901093105 70 154 0.0 0.0 0.00 0.00 0.01 98 1011.3
20260901092602 70 154 0.0 0.0 0.00 0.00 0.01 98 1011.6
20260901092106 70 154 0.0 0.0 0.00 0.00 0.01 97 1011.6
20260901091559 69 154 0.0 0.0 0.00 0.00 0.01 97 1011.6
20260901091055 70 154 0.0 0.0 0.00 0.00 0.01 98 1011.7
20260901090605 69 154 0.0 0.0 0.00 0.00 0.01 97 1011.7
20260901090104 69 154 0.0 0.0 0.00 0.00 0.01 97 1011.7
20260901085501 69 154 0.0 0.0 0.00 0.00 0.01 97 1011.7
20260901085005 69 154 0.0 0.0 0.00 0.00 0.01 97 1011.7
20260901084508 69 154 0.0 0.0 0.00 0.00 0.01 97 1011.7
20260901084101 69 154 0.0 0.0 0.00 0.00 0.01 97 1011.6
20260901083605 70 154 0.0 0.0 0.00 0.00 0.01 97 1011.6
20260901083002 69 154 0.0 0.0 0.00 0.00 0.01 97 1011.6
20260901082506 69 154 0.0 0.0 0.00 0.00 0.01 97 1011.7
20260901082058 69 154 0.0 0.0 0.00 0.00 0.01 97 1011.7
20260901081603 69 154 0.0 0.0 0.00 0.00 0.01 97 1011.7
20260901081048 70 154 0.0 0.0 0.00 0.00 0.01 97 1011.6
20260901080551 70 154 0.0 0.0 0.00 0.00 0.01 97 1011.6
20260901080058 70 154 0.0 0.0 0.00 0.00 0.01 97 1011.6
20260901075558 70 154 0.0 0.0 0.00 0.00 0.01 97 1011.6
20260901075107 70 154 0.0 0.0 0.00 0.00 0.01 97 1011.6
20260901074502 70 154 0.0 0.0 0.00 0.00 0.01 97 1011.6
20260901074005 70 154 0.0 0.0 0.00 0.00 0.01 97 1011.7
20260901073559 70 154 0.0 0.0 0.00 0.00 0.01 97 1011.7
20260901073103 70 154 0.0 0.0 0.00 0.00 0.01 97 1011.7
20260901072606 70 154 0.0 0.0 0.00 0.00 0.01 97 1011.8
20260901072006 69 154 0.0 0.0 0.00 0.00 0.01 97 1011.8
20260901071557 70 154 0.0 0.0 0.00 0.00 0.01 97 1011.8
20260901071059 70 154 0.0 0.0 0.00 0.00 0.01 97 1011.9
20260901070602 70 154 0.0 0.0 0.00 0.00 0.01 97 1011.9
20260901070002 70 154 0.0 0.0 0.00 0.00 0.00 97 1011.9
20260901065506 70 154 0.0 0.0 0.00 0.00 0.00 97 1012.1
20260901065010 70 154 0.0 0.0 0.00 0.00 0.00 97 1012.1
20260901064512 70 154 0.0 0.0 0.00 0.00 0.00 97 1012.1
20260901064106 70 154 0.0 0.0 0.00 0.00 0.00 97 1012.2
20260901063554 70 154 0.0 0.0 0.00 0.00 0.00 97 1012.2
20260901063058 70 154 0.0 0.0 0.00 0.00 0.00 97 1012.2
20260901062559 69 154 0.0 0.0 0.00 0.00 0.00 96 1012.4
20260901062103 70 154 0.0 0.0 0.00 0.00 0.00 96 1012.4
20260901061610 70 154 0.0 0.0 0.00 0.00 0.00 96 1012.4
20260901061004 70 154 0.0 0.0 0.00 0.00 0.00 96 1012.4
20260901060506 70 154 0.0 0.0 0.00 0.00 0.00 96 1012.4
20260901055505 70 154 0.0 0.0 0.00 0.00 0.00 96 1012.5
20260901055008 70 154 0.0 0.0 0.00 0.00 0.00 96 1012.5
20260901054609 70 154 0.0 0.0 0.00 0.00 0.00 96 1012.5
20260901054003 70 154 0.0 0.0 0.00 0.00 0.00 96 1012.6
20260901053509 70 154 0.0 0.0 0.00 0.00 0.00 96 1012.6
20260901053117 70 154 0.0 0.0 0.00 0.00 0.00 96 1012.6
20260901052605 70 154 0.0 0.0 0.00 0.00 0.00 96 1012.8
20260901052004 70 154 0.0 0.0 0.00 0.00 0.00 96 1012.8
20260901051507 70 154 0.0 0.0 0.00 0.00 0.00 96 1012.8
20260901051101 70 154 0.0 0.0 0.00 0.00 0.00 96 1013.0
20260901050604 70 154 0.0 0.0 0.00 0.00 0.00 96 1013.0
20260901050001 70 154 0.0 0.0 0.00 0.00 0.00 96 1013.0
20260901045505 70 154 0.0 0.0 0.00 0.00 0.00 96 1013.1
20260901045058 70 154 0.0 0.0 0.00 0.00 0.00 96 1013.1
20260901044621 70 154 0.0 0.0 0.00 0.00 0.00 96 1013.1
20260901044105 70 154 0.0 0.0 0.00 0.00 0.00 96 1013.2
20260901043505 70 154 0.0 0.0 0.00 0.00 0.00 95 1013.2
20260901043007 70 154 0.0 0.0 0.00 0.00 0.00 95 1013.2
20260901042509 70 154 0.0 0.0 0.00 0.00 0.00 95 1013.1
20260901042103 70 154 0.0 0.0 0.00 0.00 0.00 95 1013.1
20260901041607 70 154 0.0 0.0 0.00 0.00 0.00 95 1013.1
20260901041003 70 154 0.0 0.0 0.00 0.00 0.00 95 1013.3
20260901040506 70 154 0.0 0.0 0.00 0.00 0.00 95 1013.3
20260901040059 70 154 0.0 0.0 0.00 0.00 0.00 95 1013.3
20260901035602 70 154 0.0 0.0 0.00 0.00 0.09 95 1013.5
20260901035107 70 154 0.0 0.0 0.00 0.00 0.09 94 1013.5
20260901034503 70 154 0.0 0.0 0.00 0.00 0.09 94 1013.5
20260901034007 70 154 0.0 0.0 0.00 0.00 0.09 94 1013.3
20260901033600 70 154 0.0 0.0 0.00 0.00 0.09 94 1013.3
20260901033103 70 154 0.0 0.0 0.00 0.00 0.09 94 1013.3
20260901032606 70 154 0.0 0.0 0.00 0.00 0.09 93 1013.5
20260901032004 70 154 0.0 0.0 0.00 0.00 0.09 93 1013.5
20260901031600 70 154 0.0 0.0 0.00 0.00 0.09 93 1013.5
20260901031104 70 154 0.0 0.0 0.00 0.00 0.09 93 1013.6
20260901030501 70 154 0.0 0.0 0.00 0.00 0.09 93 1013.6
20260901030100 70 154 0.0 0.0 0.00 0.00 0.09 92 1013.6
20260901025607 70 154 0.0 0.0 0.00 0.00 0.09 92 1013.5
20260901025004 70 154 0.0 0.0 0.00 0.00 0.09 92 1013.5
20260901024607 70 154 0.0 0.0 0.00 0.00 0.08 92 1013.5
20260901024105 70 154 0.0 0.0 0.00 0.00 0.08 92 1013.4
20260901023503 70 154 0.0 0.0 0.00 0.00 0.08 92 1013.4
20260901023005 70 154 0.0 0.0 0.00 0.00 0.08 91 1013.4
20260901022559 71 154 0.0 0.0 0.00 0.00 0.08 91 1013.7
20260901022103 71 154 0.0 0.0 0.00 0.00 0.08 91 1013.7
20260901021605 71 154 0.0 0.0 0.00 0.00 0.08 91 1013.7
20260901021004 71 154 0.0 0.0 0.00 0.00 0.08 91 1013.5
20260901020507 71 154 0.0 0.0 0.00 0.00 0.08 90 1013.5
20260901015605 71 154 0.0 0.0 0.00 0.00 0.08 90 1013.4
20260901015004 71 154 0.0 0.0 0.00 0.00 0.08 90 1013.4
20260901014559 71 154 0.0 0.0 0.00 0.00 0.08 89 1013.4
20260901014100 71 154 0.0 0.0 0.00 0.00 0.08 89 1013.3
20260901013605 72 154 0.0 0.0 0.00 0.00 0.08 88 1013.3
20260901013000 72 154 0.0 0.0 0.00 0.00 0.08 88 1013.3
20260901012509 72 154 0.0 0.0 0.00 0.00 0.08 88 1013.4
20260901012057 72 154 0.0 0.0 0.00 0.00 0.08 87 1013.4
20260901011607 72 154 0.0 0.0 0.00 0.00 0.08 87 1013.4
20260901011104 72 154 0.0 0.0 0.00 0.00 0.08 86 1013.3
20260901010555 72 154 0.0 0.0 0.00 0.00 0.08 86 1013.3
20260901010058 73 154 0.0 0.0 0.00 0.00 0.08 85 1013.3
20260901005601 73 154 0.0 0.0 0.00 0.00 0.08 85 1013.3
20260901005103 73 154 0.0 0.0 0.00 0.00 0.08 85 1013.3
20260901004514 73 154 0.0 0.0 0.00 0.00 0.08 84 1013.3
20260901004059 73 154 0.0 0.0 0.00 0.00 0.08 84 1013.1
20260901003604 73 154 0.0 0.0 0.00 0.00 0.08 84 1013.1
20260901003003 73 154 0.0 0.0 0.00 0.00 0.08 83 1013.1
20260901002504 74 154 0.0 0.0 0.00 0.00 0.08 82 1012.9
20260901002100 74 154 0.0 0.0 0.00 0.00 0.08 82 1012.9
20260901001600 74 154 0.0 0.0 0.00 0.00 0.08 82 1012.9
20260901001102 74 154 0.0 0.0 0.00 0.00 0.08 82 1012.8
20260901000606 74 154 0.0 0.0 0.00 0.00 0.08 82 1012.8
20260901000051 74 154 0.0 0.0 0.00 0.00 0.07 81 1012.8
20260831235555 74 154 0.0 0.0 0.00 0.00 0.07 81 1013.0
20260831235058 74 154 0.0 0.0 0.00 0.00 0.07 80 1013.0
20260831234605 74 154 0.0 0.0 0.00 0.00 0.07 80 1013.0
20260831234055 74 154 0.0 0.0 0.00 0.00 0.07 79 1013.1
20260831233559 75 154 0.0 0.0 0.00 0.00 0.07 79 1013.1
20260831233104 75 154 0.0 0.0 0.00 0.00 0.07 79 1013.1
20260831232505 75 154 0.0 0.0 0.00 0.00 0.07 78 1013.2
20260831232008 75 154 0.0 0.0 0.00 0.00 0.07 78 1013.2
20260831231512 75 154 0.0 0.0 0.00 0.00 0.07 78 1013.2
20260831231015 75 154 0.0 0.0 0.00 0.00 0.07 79 1013.3
20260831230505 75 154 0.0 0.0 0.00 0.00 0.07 80 1013.3
20260831230010 76 154 0.0 0.0 0.00 0.00 0.07 81 1013.3
20260831225511 76 154 0.0 0.0 0.00 0.00 0.07 82 1013.6
20260831225103 76 154 0.0 0.0 0.00 0.00 0.07 81 1013.6
20260831224501 76 154 0.0 0.0 0.00 0.00 0.07 80 1013.6
20260831224004 76 154 0.0 0.0 0.00 0.00 0.07 80 1013.5
20260831223507 76 154 0.0 0.0 0.00 0.00 0.07 80 1013.5
20260831223010 76 154 0.0 0.0 0.00 0.00 0.07 79 1013.5
20260831222603 76 154 0.0 0.0 0.00 0.00 0.07 79 1013.6
20260831222105 76 154 0.0 0.0 0.00 0.00 0.07 79 1013.6
20260831221503 77 154 0.0 0.0 0.00 0.00 0.07 79 1013.6
20260831221006 77 154 0.0 0.0 0.00 0.00 0.07 79 1013.6
20260831220600 77 154 0.0 0.0 0.00 0.00 0.07 78 1013.6
20260831220109 77 154 0.0 0.0 0.00 0.00 0.07 76 1013.6
20260831215606 77 154 0.0 0.0 0.00 0.00 0.07 76 1013.6
20260831215002 77 154 0.0 0.0 0.00 0.00 0.07 74 1013.6
20260831214520 77 154 0.0 0.0 0.00 0.00 0.07 75 1013.6
20260831214102 77 154 0.0 0.0 0.00 0.00 0.07 75 1013.7
20260831213603 77 154 0.0 0.0 0.00 0.00 0.07 73 1013.7
20260831213001 78 154 0.0 0.0 0.00 0.00 0.07 73 1013.7
20260831212504 78 154 0.0 0.0 0.00 0.00 0.07 73 1013.7
20260831212058 78 154 0.0 0.0 0.00 0.00 0.07 72 1013.7
20260831211602 78 154 0.0 0.0 0.00 0.00 0.07 71 1013.7
20260831211105 78 154 0.0 0.0 0.00 0.00 0.07 71 1014.0
20260831210507 78 154 0.0 0.0 0.00 0.00 0.07 72 1014.0
20260831210100 78 154 0.0 0.0 0.00 0.00 0.07 71 1014.0
20260831205547 78 154 0.0 0.0 0.00 0.00 0.07 71 1014.0
20260831205055 78 154 0.0 0.0 0.00 0.00 0.07 72 1014.0
20260831204502 78 154 0.0 0.0 0.00 0.00 0.07 71 1014.0
20260831204013 78 154 0.0 0.0 0.00 0.00 0.07 70 1014.1
20260831203501 78 154 0.0 0.0 0.00 0.00 0.06 70 1014.1
20260831203004 78 154 0.0 0.0 0.00 0.00 0.06 70 1014.1
20260831202508 78 167 0.0 0.0 0.00 0.00 0.06 72 1014.1
20260831202103 78 167 0.0 0.0 0.00 0.00 0.06 72 1014.1
20260831201605 78 167 0.0 0.0 0.00 0.00 0.06 72 1014.1
20260831201003 78 167 0.0 0.0 0.00 0.00 0.06 73 1014.2
20260831200505 78 167 0.0 0.0 0.00 0.00 0.06 73 1014.2
20260831200100 77 167 0.0 0.0 0.00 0.00 0.06 72 1014.2
20260831195601 77 171 0.0 0.0 0.00 0.00 0.06 72 1014.3
20260831195105 78 174 0.0 0.0 0.00 0.00 0.06 72 1014.3
20260831194502 78 174 0.0 0.0 0.00 0.00 0.06 71 1014.3
20260831194007 78 174 0.0 0.0 0.00 0.00 0.06 69 1014.4
20260831193603 79 128 0.0 0.0 0.00 0.00 0.06 70 1014.4
20260831193106 79 128 0.0 0.0 0.00 0.00 0.06 71 1014.4
20260831192504 78 127 0.0 0.0 0.00 0.00 0.06 72 1014.6
20260831192056 78 127 0.0 0.0 0.00 0.00 0.06 70 1014.6
20260831191602 78 127 0.0 0.0 0.00 0.00 0.06 69 1014.6
20260831191103 78 127 0.0 0.0 0.00 0.00 0.06 70 1014.7
20260831190502 78 127 0.0 0.0 0.00 0.00 0.06 70 1014.7
20260831190006 78 127 0.0 0.0 0.00 0.00 0.06 69 1014.7
20260831185558 78 127 0.0 0.0 0.00 0.00 0.06 68 1014.7
20260831185102 78 127 0.0 0.0 0.00 0.00 0.06 66 1014.7
20260831184606 78 127 0.0 0.0 0.00 0.00 0.06 66 1014.7
20260831184002 78 127 0.0 0.0 0.00 0.00 0.06 65 1014.8
20260831183557 78 127 0.0 0.0 0.00 0.00 0.06 66 1014.8
20260831183105 78 127 0.0 0.0 0.00 0.00 0.05 65 1014.8
20260831182605 79 127 0.0 0.0 0.00 0.00 0.05 67 1014.7
20260831182003 79 127 0.0 0.0 0.00 0.00 0.05 65 1014.7
20260831181555 79 127 0.0 0.0 0.00 0.00 0.05 69 1014.7
20260831181058 78 127 0.0 0.0 0.00 0.00 0.05 69 1014.8
20260831180601 78 127 0.0 0.0 0.00 0.00 0.05 71 1014.8
20260831180049 77 127 0.0 0.0 0.00 0.00 0.05 71 1014.8
20260831175540 77 127 0.0 0.0 0.00 0.00 0.05 72 1015.0
20260831175043 77 127 0.0 0.0 0.00 0.00 0.05 71 1015.0
20260831174553 77 127 0.0 0.0 0.00 0.00 0.05 69 1015.0
20260831174058 77 127 0.0 0.0 0.00 0.00 0.05 72 1015.1
20260831173605 77 127 0.0 0.0 0.00 0.00 0.05 75 1015.1
20260831173002 77 127 0.0 0.0 0.00 0.00 0.05 76 1015.1
20260831172512 77 127 0.0 0.0 0.00 0.00 0.05 76 1015.1
20260831172017 77 127 0.0 0.0 0.00 0.00 0.05 75 1015.1
20260831171501 77 127 0.0 0.0 0.00 0.00 0.05 75 1015.1
20260831171055 77 127 0.0 0.0 0.00 0.00 0.05 75 1015.1
20260831170559 77 127 0.0 0.0 0.00 0.00 0.05 73 1015.1
20260831165605 77 127 0.0 0.0 0.00 0.00 0.05 71 1015.2
20260831165052 77 127 0.0 0.0 0.00 0.00 0.05 73 1015.2
20260831164609 77 127 0.0 0.0 0.00 0.00 0.05 73 1015.2
20260831164053 77 127 0.0 0.0 0.00 0.00 0.05 73 1015.1
20260831163555 77 127 0.0 0.0 0.00 0.00 0.05 70 1015.1
20260831163058 77 127 0.0 0.0 0.00 0.00 0.05 71 1015.1
20260831162600 77 127 0.0 0.0 0.00 0.00 0.05 73 1015.2
20260831162102 77 127 0.0 0.0 0.00 0.00 0.05 72 1015.2
20260831161502 77 127 0.0 0.0 0.00 0.00 0.05 74 1015.2
20260831161004 76 127 0.0 0.0 0.00 0.00 0.05 71 1015.2
20260831160558 76 127 0.0 0.0 0.00 0.00 0.05 70 1015.2